Regional Weather Roundup
Issued by NWS

Home | Current Version | Previous Version | Graphics & Text | Print | Product List | Glossary On
Versions: 1 2 3 4 5 6 7 8 9 10 11 12 13 14 15 16 17 18 19 20 21 22 23 24 25 26 27 28 29 30 31 32 33 34 35 36 37 38 39 40 41 42 43 44 45 46 47 48 49 50
542
ASUS44 KJAN 311503
RWRMS

MISSISSIPPI HOURLY WEATHER ROUNDUP
NATIONAL WEATHER SERVICE JACKSON MS
1000 AM CDT SUN AUG 31 2014

NOTE: "FAIR: INDICATES FEW OR NO CLOUDS BELOW 12,000 FEET WITH NO
SIGNIFICANT WEATHER AND/OR OBSTRUCTIONS TO VISIBILITY.

MSZ001>002-007>008-010>013-018>021-025>028-034>036-311600-
NORTHWEST MISSISSIPPI

CITY           SKY/WX    TMP DP  RH WIND       PRES   REMARKS
CLARKSDALE     CLOUDY    77  75  94 S7        30.08R
CLEVELAND      CLOUDY    78  75  91 SW7       30.07R
GREENWOOD      PTSUNNY   79  72  79 SW12      30.08R
GREENVILLE     PTSUNNY   79  72  79 SW10      30.07R
GRENADA        CLOUDY    77  72  83 CALM      30.10R
OXFORD         CLOUDY    75  70  83 SW7       30.11R
TUNICA         CLOUDY    75  72  88 S10       30.08R
$$

MSZ003>006-009-014>017-022>024-029>033-037>039-311600-
NORTHEAST MISSISSIPPI

CITY           SKY/WX    TMP DP  RH WIND       PRES   REMARKS
BELMONT        CLOUDY    76  72  87 S10       30.11R
COLUMBUS AFB   LGT RAIN  77  73  88 S7        30.12R
CORINTH        CLOUDY    77  70  78 S8G14     30.09R
GOLDN TRIANGLE PTSUNNY   75  72  88 S9        30.13R
STARKVILLE     PTSUNNY   73  72  94 S6        30.10F
TUPELO         PTSUNNY   77  71  82 SW10      30.10R
$$

MSZ040-058-311600-
CENTRAL MISSISSIPPI

CITY           SKY/WX    TMP DP  RH WIND       PRES   REMARKS
JACKSON INTL   CLOUDY    78  73  84 S6        30.11R
JACKSON HAWKNS CLOUDY    78  73  84 SE6       30.11R
MERIDIAN KEY   CLOUDY    79  76  90 S5        30.13R
MERIDIAN NAS   CLOUDY    79  76  90 CALM      30.13S
RAYMOND        FAIR      77  72  83 S3        30.10S
VICKSBURG      CLOUDY    78  73  84 S7        30.09R
$$

MSZ059>079-311600-
SOUTH MISSISSIPPI

CITY           SKY/WX    TMP DP  RH WIND       PRES   REMARKS
BROOKHAVEN     PTSUNNY   79  77  94 SE5       30.13S FOG
HATTIESBURG    CLOUDY    78  76  93 CALM      30.13R
MCCOMB         CLOUDY    79  76  90 SE6       30.11S
NATCHEZ        CLOUDY    77  72  83 SE5       30.10S
PINE BELT      CLOUDY    79  75  89 S5        30.14R
$$

MSZ080>082-311600-
COASTAL MISSISSIPPI

CITY           SKY/WX    TMP DP  RH WIND       PRES   REMARKS
BAY ST LOUIS   PTSUNNY  N/A N/A N/A S9        30.11R
BILOXI         MOSUNNY   88  78  70 S9        30.11R HX 101
PASCAGOULA     MOSUNNY   85  77  77 VRB5      30.11R HX  95
GULFPORT       SUNNY     86  77  74 SE10      30.10R HX  97
$$



USA.gov is the U.S. government's official web portal to all federal, state and local government web resources and services.